Weather History for Watsonville, CA

Change the Weather History Date:

Tuesday, January 22, 2013

  Actual Average Record
Temperature  
Mean Temperature 54 °F 51 °F  
Max Temperature 71 °F 62 °F 74 °F (2014)
Min Temperature 37 °F 40 °F 29 °F (2007)
Degree Days  
Heating Degree Days 11    
Month to date heating degree days 381  
Since 1 July heating degree days 1609  
Cooling Degree Days 0    
Month to date cooling degree days 0  
Year to date cooling degree days 0  
Growing Degree Days 4 (Base 50)    
Moisture  
Dew Point 32 °F    
Average Humidity 49    
Maximum Humidity 76    
Minimum Humidity 22    
Precipitation  
Precipitation 0.00 in - 2.55 in (1967)
Month to date precipitation 0.59  
Year to date precipitation 0.59  
Since 1 July precipitation 11.53  
Sea Level Pressure  
Sea Level Pressure 30.06 in    
Wind  
Wind Speed 3 mph (NNW)    
Max Wind Speed 8 mph    
Max Gust Speed 20 mph    
Visibility 10 miles    
Events      
T = Trace of Precipitation, MM = Missing Value Source: NWS Daily Summary

Daily Weather History Graph

Daily Weather History Graph

Search for Another Location

Airport:

Trip Planner

Search our weather history database for the weather conditions in past years. The results will help you decide how hot, cold, wet, or windy it might be!

Date:

Astronomy

Jan. 22, 2013 Rise Set
Actual Time 7:16 AM PST 5:21 PM PST
Civil Twilight 6:48 AM PST 5:49 PM PST
Nautical Twilight 6:16 AM PST 6:21 PM PST
Astronomical Twilight 5:45 AM PST 6:52 PM PST
Moon 1:50 PM PST (1/22) 3:41 AM PST (1/22)
Length of Visible Light 11h 01m
Length of Day
10h 05m
Waxing Gibbous, 83% of the Moon is Illuminated
Jan 22
Waxing Gibbous
Jan 26
Full
Feb 3
Last Quarter
Feb 9
New
Feb 17
First Quarter

Hourly Weather History & Observations

Time (PST) Temp. Windchill Dew Point Humidity Pressure Visibility Wind Dir Wind Speed Gust Speed Precip Events Conditions
12:53 AM 45.0 °F - 30.9 °F 58% 30.10 in 10.0 mi Calm Calm - N/A   Clear
1:53 AM 43.0 °F - 30.9 °F 62% 30.09 in 10.0 mi Calm Calm - N/A   Clear
2:53 AM 42.1 °F - 32.0 °F 67% 30.08 in 10.0 mi Calm Calm - N/A   Clear
3:53 AM 37.9 °F - 30.0 °F 73% 30.06 in 10.0 mi Calm Calm - N/A   Clear
4:53 AM 39.0 °F 36.8 °F 28.9 °F 67% 30.07 in 10.0 mi WNW 3.5 mph - N/A   Clear
5:53 AM 41.0 °F 38.0 °F 30.9 °F 67% 30.08 in 10.0 mi ENE 4.6 mph - N/A   Clear
6:53 AM 41.0 °F 36.4 °F 30.0 °F 65% 30.09 in 10.0 mi NE 6.9 mph - N/A   Clear
7:53 AM 42.1 °F 40.2 °F 30.0 °F 62% 30.09 in 10.0 mi ENE 3.5 mph - N/A   Clear
8:53 AM 45.0 °F - 33.1 °F 63% 30.09 in 10.0 mi Calm Calm - N/A   Clear
9:53 AM 55.0 °F - 36.0 °F 49% 30.09 in 10.0 mi East 6.9 mph - N/A   Clear
10:53 AM 60.1 °F - 36.0 °F 41% 30.10 in 10.0 mi East 5.8 mph - N/A   Clear
11:53 AM 66.0 °F - 35.1 °F 32% 30.08 in 10.0 mi Calm Calm - N/A   Clear
12:53 PM 66.9 °F - 30.9 °F 26% 30.05 in 10.0 mi SW 5.8 mph - N/A   Clear
1:53 PM 66.9 °F - 32.0 °F 27% 30.05 in 10.0 mi SW 5.8 mph - N/A   Clear
2:53 PM 69.1 °F - 28.0 °F 22% 30.03 in 10.0 mi Calm Calm - N/A   Clear
3:53 PM 70.0 °F - 28.0 °F 21% 30.01 in 10.0 mi NW 3.5 mph - N/A   Clear
4:53 PM 61.0 °F - 30.9 °F 32% 30.02 in 10.0 mi SW 3.5 mph - N/A   Clear
5:53 PM 57.9 °F - 33.1 °F 39% 30.02 in 10.0 mi North 4.6 mph - N/A   Clear
6:53 PM 55.0 °F - 34.0 °F 45% 30.02 in 10.0 mi NW 4.6 mph - N/A   Clear
7:53 PM 54.0 °F - 33.1 °F 45% 30.03 in 10.0 mi NW 4.6 mph - N/A   Clear
8:53 PM 53.1 °F - 30.9 °F 43% 30.04 in 10.0 mi Calm Calm - N/A   Clear
9:53 PM 52.0 °F - 30.9 °F 45% 30.05 in 10.0 mi WNW 5.8 mph - N/A   Clear
10:53 PM 51.1 °F - 33.1 °F 50% 30.05 in 10.0 mi NNW 5.8 mph - N/A   Clear
11:53 PM 51.1 °F - 34.0 °F 52% 30.05 in 10.0 mi NW 4.6 mph - N/A   Clear